"Pseudo-MPEC" for DRA0779

Created 2025 Jul 7 19:35:06 UT using Find_Orb

Click here for an explanation of pseudo-MPECs

 
 Astrometry: 
     DRA0779*KC2025 07 06.23927221 13 21.839+51 03 29.45   ~7685 18.3 GVNEOCPV11
     DRA0779 KC2025 07 06.26400121 13 19.118+51 03 26.24   ~7685 18.8 GVNEOCPV11
     DRA0779 KC2025 07 06.28539721 13 16.684+51 03 23.13   ~7685 18.8 GVNEOCPV11

Station data:
(V11) Saguaro Observatory, Tucson  (N32.208836 W110.788810)  US/Arizona.
   Observer D. Rankin. 0.20-m reflector + CCD.

Orbital elements:  DRA0779
   Perihelion 2026 Mar 25.20311 +/- 220 TT =  4:52:28 (JD 2461124.70311)
Epoch 2025 Jul  6.0 TT = JDT 2460862.5   Earth MOID: 0.4179      AutoNEOCP
M 237.69767975 +/- 100              (J2000 ecliptic)
n   0.46644114 +/- 0.372            Peri.  280.56522 +/- 70
a   1.64666331 +/- 0.876            Node   146.77992 +/- 38
e   0.2934429 +/- 0.247             Incl.   73.73247 +/- 31
P   2.113/771.787d         H 15.20  G  0.15   U 12.1  SR
q 1.16346161 +/- 0.914    Q 2.12986502 +/- 31.5
From 3 observations 2025 July 6 (66.4 min); mean residual 0".13
Residuals in arcseconds: 
250706 V11  .11-  .04-    250706 V11  .24+  .10+    250706 V11  .13-  .05-    

Ephemerides (geocentric):
Date (UTC) HH   RA             Dec           delta  r     elong  mag " sig PA
---- --------  ------------   ------------  ------ ------ -----  --- --------
2025 07 07 20  21 10 22.564   +50 58 35.02  1.5055 1.9800 101.7 18.9 921'  47
2025 07 07 21  21 10 17.779   +50 58 26.01  1.5050 1.9799 101.7 18.9 918'  47
2025 07 07 22  21 10 12.987   +50 58 16.92  1.5045 1.9798 101.7 18.9 916'  48
2025 07 07 23  21 10 08.191   +50 58 07.77  1.5040 1.9797 101.8 18.9 913' 132
2025 07 08 00  21 10 03.388   +50 57 58.55  1.5035 1.9796 101.8 18.9 911' 132
2025 07 08 01  21 09 58.581   +50 57 49.26  1.5030 1.9795 101.8 18.9 909' 132
2025 07 08 02  21 09 53.767   +50 57 39.90  1.5025 1.9794 101.8 18.9 907' 132
2025 07 08 03  21 09 48.948   +50 57 30.47  1.5020 1.9793 101.9 18.9 906' 132
2025 07 08 04  21 09 44.124   +50 57 20.97  1.5015 1.9792 101.9 18.9 905' 132
2025 07 08 05  21 09 39.294   +50 57 11.41  1.5010 1.9791 101.9 18.9 904' 132
2025 07 08 06  21 09 34.458   +50 57 01.77  1.5005 1.9790 101.9 18.9 903' 132
2025 07 08 07  21 09 29.617   +50 56 52.06  1.5000 1.9789 102.0 18.9 903' 132
2025 07 08 08  21 09 24.770   +50 56 42.29  1.4995 1.9788 102.0 18.9 902' 132
2025 07 08 09  21 09 19.918   +50 56 32.44  1.4990 1.9787 102.0 18.9 902' 132
2025 07 08 10  21 09 15.060   +50 56 22.52  1.4985 1.9786 102.0 18.9 901' 132
2025 07 08 11  21 09 10.197   +50 56 12.54  1.4980 1.9785 102.1 18.9 901' 132
2025 07 08 12  21 09 05.328   +50 56 02.48  1.4975 1.9784 102.1 18.9 900' 132
2025 07 08 13  21 09 00.454   +50 55 52.35  1.4970 1.9783 102.1 18.9 900' 132
2025 07 08 14  21 08 55.574   +50 55 42.15  1.4965 1.9782 102.2 18.9 900' 132
2025 07 08 15  21 08 50.688   +50 55 31.89  1.4960 1.9781 102.2 18.9 899' 132
2025 07 08 16  21 08 45.798   +50 55 21.55  1.4955 1.9780 102.2 18.9 899' 132
2025 07 08 17  21 08 40.901   +50 55 11.14  1.4950 1.9779 102.2 18.9 899' 132
2025 07 08 18  21 08 35.999   +50 55 00.66  1.4945 1.9778 102.3 18.9 899' 132
2025 07 08 19  21 08 31.092   +50 54 50.10  1.4940 1.9777 102.3 18.9 898' 132
2025 07 08 20  21 08 26.179   +50 54 39.48  1.4935 1.9776 102.3 18.9 898' 132
2025 07 08 21  21 08 21.261   +50 54 28.79  1.4930 1.9775 102.3 18.9 898' 132
2025 07 08 22  21 08 16.337   +50 54 18.02  1.4925 1.9774 102.4 18.9 898' 132
2025 07 08 23  21 08 11.408   +50 54 07.19  1.4920 1.9773 102.4 18.9 898' 132
2025 07 09 00  21 08 06.473   +50 53 56.28  1.4915 1.9772 102.4 18.9 898' 132
2025 07 09 01  21 08 01.533   +50 53 45.30  1.4910 1.9771 102.4 18.9 898' 132
2025 07 09 02  21 07 56.588   +50 53 34.25  1.4905 1.9770 102.5 18.9 899' 132
2025 07 09 03  21 07 51.637   +50 53 23.12  1.4900 1.9769 102.5 18.9 900' 132
2025 07 09 04  21 07 46.680   +50 53 11.93  1.4895 1.9768 102.5 18.9 903' 132
2025 07 09 05  21 07 41.718   +50 53 00.66  1.4890 1.9767 102.5 18.9 916' 133
2025 07 09 06  21 07 36.751   +50 52 49.32  1.4885 1.9766 102.6 18.9 985' 138
2025 07 09 07  21 07 31.778   +50 52 37.90  1.4880 1.9765 102.6 18.8  19d 142
2025 07 09 08  21 07 26.800   +50 52 26.42  1.4875 1.9764 102.6 18.8  21d 138
2025 07 09 09  21 07 21.816   +50 52 14.86  1.4870 1.9763 102.6 18.8  21d 136
2025 07 09 10  21 07 16.827   +50 52 03.23  1.4865 1.9763 102.7 18.8  21d 135
2025 07 09 11  21 07 11.833   +50 51 51.53  1.4860 1.9762 102.7 18.8  21d 134
2025 07 09 12  21 07 06.833   +50 51 39.75  1.4855 1.9761 102.7 18.8  21d 134
2025 07 09 13  21 07 01.828   +50 51 27.90  1.4850 1.9760 102.7 18.8  21d 133
2025 07 09 14  21 06 56.817   +50 51 15.98  1.4845 1.9759 102.8 18.8  21d 133
2025 07 09 15  21 06 51.801   +50 51 03.98  1.4840 1.9758 102.8 18.8  21d 133
2025 07 09 16  21 06 46.780   +50 50 51.92  1.4835 1.9757 102.8 18.8  21d 133
2025 07 09 17  21 06 41.753   +50 50 39.77  1.4830 1.9756 102.8 18.8  21d 133
2025 07 09 18  21 06 36.721   +50 50 27.56  1.4825 1.9755 102.9 18.8  21d 133
2025 07 09 19  21 06 31.684   +50 50 15.27  1.4820 1.9753 102.9 18.8  21d 133